{"data":{"norad_id":48128,"epoch":"2026-09-19T18:35:17.355552Z","epoch_age_seconds":91829,"freshness":"FRESH","line1":"1 48128U 21027AN  26262.77450643  .00096149  00000+0  19047-2 0  9990","line2":"2 48128  53.0978 280.4832 0005445  53.6844 306.4665 15.46285443303088","mean_motion":15.46285443,"eccentricity":0.0005445,"inclination_deg":53.0978,"raan_deg":280.4832,"arg_perigee_deg":53.6844,"mean_anomaly_deg":306.4665,"bstar":0.0019047,"rev_number":30308,"period_min":93.126402147731,"perigee_km":423.89794331137,"apogee_km":431.30939490002,"semimajor_km":6805.7406691057,"source":"CELESTRAK","updated_at":"2026-09-20T09:00:38.766930Z"}}